Theta_e
294 293 293 293 291 290 289 289 286 285 283 283 282 282 282 281 281 282 282 281 281 281 281 281 280 280 280 280 280 279 279 279 278 278 279 279 278 278 279 279 279 279 280
293 291 291 290 290 288 289 287 285 284 283 283 281 282 281 281 281 281 280 281 280 280 280 279 279 279 279 278 278 278 278 278 278 275 276 277 276 278 278 277 278 279 279
291 289 288 288 288 288 288 286 284 284 282 282 281 281 281 281 281 281 281 281 281 280 280 279 278 278 277 277 277 277 277 277 277 276 275 276 277 277 277 278 278 278 278
289 289 287 287 287 287 286 285 284 283 282 281 281 281 281 281 281 281 280 280 280 280 279 279 279 278 278 277 276 277 276 276 276 275 274 275 275 276 276 275 276 278 277
289 288 288 287 286 286 285 284 284 282 282 281 281 280 281 280 280 280 280 280 279 279 278 279 279 279 280 279 277 277 276 276 275 275 274 274 275 274 274 276 275 276 277
289 288 288 285 284 285 284 283 282 281 281 280 280 280 280 280 284 284 281 279 279 278 277 278 278 279 280 282 282 281 278 276 274 274 275 274 275 275 275 275 275 273 272
287 287 286 284 283 283 283 282 281 280 280 280 280 279 279 280 285 285 283 279 279 278 278 278 277 277 278 278 282 283 283 282 281 276 276 276 276 276 276 275 275 274 273
286 285 284 283 283 282 281 281 281 280 280 279 279 279 279 280 286 286 284 279 279 278 279 278 277 277 277 276 276 276 277 277 279 280 279 278 278 278 277 277 276 273 272
284 284 283 283 281 281 280 281 281 280 280 280 280 279 279 279 285 286 284 279 279 279 279 277 277 277 279 281 277 275 276 276 278 281 281 282 282 282 282 276 272 269 270
282 282 282 282 281 280 281 280 281 281 280 279 279 279 279 279 285 286 285 282 281 279 278 277 279 278 280 282 280 277 275 276 276 276 276 277 280 277 278 276 273 269 268
280 280 280 281 280 280 280 280 280 279 279 279 279 279 279 280 282 286 287 283 283 281 280 279 278 281 282 282 283 279 277 278 276 277 275 275 275 274 274 273 273 271 269
278 278 278 279 280 281 280 280 280 280 279 278 278 278 278 279 281 284 286 287 285 281 280 279 278 281 283 283 283 283 283 283 281 277 275 273 272 272 272 272 272 271 271
276 276 278 279 280 281 280 280 279 280 279 279 279 279 278 277 278 283 285 286 288 284 281 280 281 282 283 282 283 283 281 280 279 274 272 271 272 273 271 270 270 270 269
281 280 280 280 280 281 281 281 281 281 281 280 279 280 279 276 276 277 280 282 283 284 284 281 281 281 281 280 277 279 277 277 275 274 273 273 271 269 269 269 267 266 264
282 281 282 282 281 281 280 282 282 282 284 282 280 280 279 276 277 279 278 277 277 278 270 270 271 272 273 273 272 273 274 274 273 272 271 270 269 268 268 267 266 264 262
278 279 279 279 279 278 277 275 281 281 283 284 282 280 275 278 280 281 281 279 278 278 269 269 270 270 271 271 270 270 270 269 269 269 268 267 266 266 266 265 264 262 261
273 274 275 275 274 274 274 274 273 277 282 280 280 280 278 278 280 280 281 280 280 279 270 269 268 268 266 266 266 265 265 265 265 265 265 264 264 264 263 262 262 261 260
268 268 268 268 269 269 270 270 272 275 275 275 279 279 279 280 279 280 280 274 268 267 265 265 264 264 263 262 261 261 261 261 261 261 261 260 260 260 260 259 259 258 258
267 265 265 266 266 267 267 267 267 268 267 266 269 271 270 279 275 272 270 265 264 263 262 261 260 259 258 257 256 256 255 257 258 257 257 256 257 257 257 257 258 257 258
265 264 263 263 264 264 264 264 264 264 264 263 263 262 261 263 260 258 258 259 260 259 258 257 255 254 254 254 253 253 254 254 255 255 255 255 256 256 257 256 256 256 257
260 260 261 261 260 260 260 260 261 261 261 260 260 261 264 261 260 259 258 257 258 257 255 255 253 252 251 251 251 252 252 254 253 253 253 254 254 254 255 256 256 256 256
259 257 258 257 258 258 257 258 258 258 258 258 259 263 265 260 258 257 256 255 253 252 251 252 252 251 252 252 253 253 253 253 253 252 252 252 253 254 254 254 254 255 255
259 257 256 255 256 256 256 255 256 257 256 256 257 257 257 256 255 256 255 252 252 252 250 248 251 251 251 249 250 252 253 253 253 252 252 252 252 253 253 254 253 253 253
256 255 255 253 253 253 253 252 253 253 254 253 252 252 254 252 252 254 254 253 252 252 250 250 250 251 251 249 249 249 249 251 251 251 251 252 252 252 253 252 252 252 252
251 252 251 250 249 249 250 249 251 248 249 251 250 251 251 252 253 252 253 251 251 251 252 251 250 250 250 250 250 249 248 253 253 250 250 251 251 251 250 251 251 250 248
249 249 246 247 247 246 247 248 248 249 248 250 250 250 250 250 251 252 253 251 252 252 252 252 251 250 250 250 250 251 251 254 253 252 251 251 250 250 249 248 247 247 248
Wind_Speed
12 13 13 12 12 10 10 10 10 9 10 11 10 11 11 10 9 8 9 10 10 9 8 8 8 8 6 5 4 4 3 2 3 1 1 1 3 5 5 5 6 6 7
12 12 12 12 12 12 12 12 11 12 11 12 12 11 11 11 10 11 11 9 11 11 10 9 9 6 7 6 5 5 4 4 3 4 1 2 6 5 7 7 5 5 7
12 12 12 13 14 14 13 12 13 13 13 12 13 13 13 12 11 9 10 10 9 9 10 9 9 9 8 6 6 5 4 4 4 4 3 2 4 4 4 5 6 6 6
13 14 14 15 14 13 13 13 14 14 15 14 13 13 13 12 11 11 10 10 9 8 8 7 9 9 9 9 7 7 5 5 5 6 6 6 5 4 4 5 7 5 8
14 14 16 13 12 12 12 12 12 13 13 14 14 12 12 12 10 12 11 11 10 8 7 6 7 8 11 11 6 7 8 7 6 6 7 4 5 3 4 3 8 10 9
14 15 11 12 12 12 12 12 12 12 12 13 14 14 14 9 20 21 14 10 9 9 8 6 6 8 12 15 15 12 11 8 8 5 6 7 9 6 5 6 7 7 7
14 12 12 12 13 12 12 12 13 14 13 15 14 14 13 10 21 21 18 8 9 7 7 7 7 6 8 7 13 16 16 18 15 7 10 9 9 7 7 8 8 9 9
11 10 10 12 12 12 13 13 13 12 14 14 13 13 11 9 22 21 18 8 7 6 7 8 9 8 9 9 7 7 8 8 9 7 9 9 9 8 10 8 8 5 5
10 10 10 11 12 12 13 13 11 10 10 10 10 11 11 7 21 21 16 7 5 6 8 9 10 8 12 16 8 8 9 10 10 18 20 20 19 19 13 5 4 4 8
7 7 9 9 10 10 10 10 9 8 7 7 9 8 9 8 18 19 15 6 7 5 7 10 15 12 15 17 10 8 10 9 7 7 7 11 13 4 8 6 4 4 4
6 7 8 8 9 9 9 9 9 10 10 8 8 7 8 9 11 18 19 8 6 6 7 8 7 18 19 17 18 9 10 7 9 9 8 7 6 6 6 6 6 6 6
6 7 7 9 8 9 12 10 10 10 10 8 8 6 4 7 11 18 21 22 14 8 9 6 6 16 18 18 14 17 18 15 7 5 5 5 6 7 6 6 6 8 8
7 7 8 8 9 9 11 11 9 9 8 8 8 7 7 6 7 19 21 24 20 11 7 10 14 16 16 14 16 15 11 4 5 4 5 5 5 5 5 4 7 8 9
9 9 9 10 10 10 8 9 10 9 9 9 9 9 6 5 5 6 8 9 14 13 12 8 9 9 10 7 2 6 1 2 3 4 4 2 1 2 4 5 4 5 6
7 7 6 5 6 6 3 5 4 2 6 6 5 6 6 6 8 11 11 7 7 6 5 2 2 2 2 3 2 3 2 2 3 3 4 4 4 5 6 5 5 4 5
6 3 4 4 4 4 4 5 7 4 5 4 5 6 1 3 10 15 15 12 11 12 3 3 3 3 3 2 2 2 2 1 2 3 4 5 6 7 7 4 4 4 5
6 4 3 4 4 4 4 4 5 2 9 6 4 5 8 7 7 10 12 11 12 12 2 2 3 3 3 2 1 1 1 1 2 3 4 5 5 5 6 5 4 4 5
7 5 3 3 4 4 4 4 4 6 6 3 5 8 9 11 9 9 12 11 3 5 2 3 3 3 2 1 0 0 1 2 2 3 3 3 3 4 4 5 4 5 6
5 3 4 4 4 3 4 4 4 4 4 3 2 8 8 14 15 13 10 2 2 2 2 2 3 3 2 2 1 1 1 2 2 2 2 2 2 2 3 3 5 7 7
6 8 6 4 4 4 4 4 4 4 5 3 3 2 2 4 3 2 3 2 3 2 3 3 2 2 2 2 1 1 2 2 2 2 2 2 2 2 4 4 4 5 5
5 5 6 5 4 3 4 4 4 4 4 3 2 2 4 3 3 2 2 2 2 2 3 3 2 2 2 2 2 3 3 3 3 3 2 2 2 3 3 4 5 4 5
5 5 5 5 4 5 5 4 4 5 4 4 2 1 8 3 3 3 3 2 2 2 1 2 2 3 3 4 4 3 4 4 3 3 3 3 2 3 3 4 4 4 5
5 6 6 4 5 6 5 4 4 5 4 4 3 3 2 3 3 3 3 3 2 2 2 3 4 3 3 4 4 5 5 5 5 3 4 3 3 4 4 5 4 4 4
4 5 5 4 3 4 4 4 4 4 4 4 3 3 3 3 3 3 3 2 3 3 3 3 4 5 4 4 4 4 5 5 3 4 6 4 4 5 4 4 5 5 5
5 5 5 3 3 3 3 2 2 2 2 2 2 2 2 2 2 3 3 3 3 3 4 4 4 6 8 8 7 7 7 9 6 6 4 5 6 6 4 4 4 3 4
5 4 3 3 3 2 1 0 1 2 2 3 3 3 3 3 3 4 3 4 4 4 5 4 5 8 8 7 8 9 9 10 9 9 6 6 6 5 4 5 5 4 6
Wind_Direction
183 178 176 180 179 169 178 181 175 161 160 164 168 161 161 159 154 143 145 146 140 140 145 142 138 146 135 131 125 115 121 129 194 284 271 320 282 265 288 307 318 315 307
184 181 185 179 177 175 182 178 168 169 169 169 164 164 166 162 160 157 154 158 153 156 155 147 150 146 149 153 149 155 166 171 178 247 276 255 243 258 280 299 307 295 301
176 180 183 186 185 187 185 176 174 170 170 168 167 170 170 166 162 162 161 160 160 159 160 159 159 162 167 169 171 173 175 176 198 225 259 243 266 253 285 302 295 297 290
182 185 189 191 189 185 180 180 180 176 170 172 174 172 171 168 165 161 158 158 158 159 162 165 167 182 176 177 181 188 182 193 210 226 247 260 255 254 273 299 307 302 313
190 194 199 190 185 180 180 178 178 179 179 174 166 170 169 171 168 165 166 164 162 159 164 165 190 190 192 187 176 190 185 205 219 231 245 250 255 256 266 297 293 311 312
196 205 192 181 179 182 177 173 172 174 173 169 174 173 174 179 177 173 162 163 163 166 172 178 196 196 208 205 209 203 199 196 216 219 244 250 258 259 258 269 283 304 316
198 195 185 178 180 181 172 169 175 179 173 180 177 171 174 171 177 175 169 161 167 166 169 188 205 206 199 209 223 225 226 225 223 215 241 240 261 244 252 268 270 269 268
193 187 179 179 179 172 170 178 177 177 179 177 176 172 162 168 178 175 169 159 155 166 188 201 212 206 201 202 208 225 237 241 246 251 238 252 247 251 251 258 264 273 279
188 184 179 176 172 171 176 175 172 170 175 175 168 156 156 160 176 177 166 154 155 201 215 213 216 213 211 221 206 219 237 242 245 251 255 259 256 257 265 170 223 258 295
170 166 156 161 160 170 170 166 155 157 147 133 125 142 149 153 181 179 170 147 190 201 211 234 216 216 222 228 229 214 239 247 230 242 252 264 268 255 198 205 196 244 264
128 134 142 148 149 145 129 134 132 126 122 124 137 152 164 164 182 187 192 188 205 206 221 227 219 229 232 230 232 225 233 250 243 247 232 235 238 228 220 213 208 224 240
120 124 127 128 128 134 129 128 131 136 140 146 145 142 164 180 190 207 208 215 211 213 224 220 214 224 234 238 242 247 258 265 256 237 238 235 236 237 231 223 225 234 243
104 108 109 107 120 131 131 131 129 134 141 150 171 183 190 190 195 209 218 228 230 224 219 212 220 229 237 241 243 253 264 262 265 250 252 247 237 244 219 219 227 238 252
122 128 134 134 135 139 142 151 153 167 173 177 186 198 190 172 191 197 215 232 240 239 230 214 221 214 217 226 215 262 251 241 251 264 275 285 211 220 236 227 232 232 252
116 120 127 125 128 140 110 159 165 164 185 179 189 181 180 195 210 204 201 207 210 180 120 109 129 171 222 245 243 227 235 261 277 288 294 295 284 279 271 248 244 237 249
100 105 117 123 117 119 121 88 60 113 151 164 170 176 160 185 201 209 210 209 206 197 111 166 182 190 194 162 126 90 64 15 332 315 299 289 285 288 289 266 249 250 269
117 115 112 111 113 119 115 115 109 89 126 108 143 175 175 158 164 173 175 176 185 172 135 150 147 145 139 138 152 144 311 349 333 290 292 288 290 287 286 281 282 282 279
77 75 93 107 118 123 135 130 129 150 148 97 122 121 126 146 143 157 142 104 85 65 98 131 144 151 153 162 91 17 324 312 300 298 294 303 300 297 294 287 290 278 283
74 67 74 83 80 99 110 104 107 107 106 108 67 61 41 105 86 55 50 83 125 113 118 127 137 153 155 160 176 261 258 266 260 273 277 297 293 270 282 285 281 278 283
69 75 67 79 85 88 90 108 113 111 113 111 102 100 28 52 58 41 43 72 97 117 148 147 156 146 149 168 171 213 234 225 229 243 260 273 281 268 281 275 276 289 293
94 81 85 77 74 79 92 101 108 112 126 125 133 169 141 126 140 131 134 142 147 148 161 160 168 181 183 194 211 211 228 255 245 257 266 262 270 269 266 275 283 274 278
84 84 76 90 91 82 83 89 94 105 117 130 124 80 108 106 131 146 154 162 173 186 187 183 201 206 207 203 206 216 230 244 249 246 256 256 254 254 256 264 264 274 274
99 106 97 89 100 110 98 104 121 132 139 140 144 140 147 149 154 165 176 183 193 203 202 204 225 232 225 231 224 223 224 230 229 215 234 239 241 249 244 256 256 254 258
52 63 83 81 94 103 110 117 119 127 141 152 157 167 171 175 184 198 206 208 220 221 218 222 227 236 247 239 233 225 233 244 229 220 214 222 233 238 244 242 246 249 266
54 56 53 44 44 55 73 87 114 118 143 171 186 201 214 211 224 241 246 239 244 246 246 230 228 236 241 245 246 239 234 248 227 210 200 214 227 226 222 227 242 251 252
54 63 72 71 71 66 100 169 262 254 244 245 231 227 224 224 234 234 235 234 243 245 244 244 241 241 245 246 246 246 239 238 230 221 207 208 221 229 214 228 235 241 247